GOES 16

Last updated on Thu Mar 05 2026 00:02:30 GMT+0000 (Coordinated Universal Time)

1 41866U 16071A 26063.35669706 -.00000102 00000+0 00000+0 0 9991 2 41866 0.1377 89.7852 0002555 217.0177 239.0082 1.00271047 34054
UTC large
Height (km)
Speed (km/s)
/
Latitude / Longitude
Inclination (degrees)
Orbital Period (minutes)
Azimuth
Elevation
Range (km)
Doppler Factor

Next 0 passes for location: London (51.5072 / 0.1276)

Sorry there are no passes over London.